Flag for Denmark Weather past 2 weeks in Copenhagen, Denmark

Now
63 °F

Sunny.


Feels Like: 63 °F
Forecast: 56 / 67 °F
Wind: 14 mph from East

Location: Koebenhavn-Kastrup Airport

Current Time: Sep 17, 2014 at 8:11:15 PM

Latest Report: Sep 17, 2014 at 7:20 PM


Visibility: 10 mi

Pressure: 30.12 "Hg

Humidity: 73%

Dew point: 54 °F

Location of CopenhagenLocation

Historic Weather in Copenhagen — Graph

°F

Copenhagen temperature yesterday

Maximum temperature yesterday: 68 °F (at 12:50 PM)
Minimum temperature yesterday: 57 °F (at 2:50 AM)
Average temperature yesterday: 61 °F

Past Weeks' High & Low Weather Summary

 TemperatureHumidityPressure
High72 °F (Sep 6, 12:50 PM)100% (Sep 3, 4:20 AM)30.42 "Hg (Sep 3, 4:20 AM)
Low52 °F (Sep 3, 3:20 AM)53% (Sep 17, 1:20 PM)29.83 "Hg (Sep 9, 6:20 PM)
Average61 °F82%30.14 "Hg
* Reported Sep 2 6:20 PM — Sep 17 6:50 PM, Copenhagen, Weather by CustomWeather, © 2014

Note: Actual official high and low records may vary slightly from our data, if they occured in-between our weather recording intervals... More about our weather records

Advertising

Copenhagen weather history for previous 24 hours

 ConditionsComfort  
Time TempWeatherWind HumidityBarometerVisibility
6:50 PM
Sep 17
63 °FSunny.12 mph73%30.12 "Hg10 mi
6:20 PM64 °FSunny.14 mph64%30.12 "Hg10 mi
5:50 PM64 °FSunny.12 mph64%30.15 "Hg10 mi
5:20 PM66 °FSunny.13 mph60%30.15 "Hg10 mi
4:50 PM66 °FSunny.13 mph60%30.15 "Hg10 mi
4:20 PM68 °FSunny.12 mph56%30.15 "Hg10 mi
3:50 PM68 °FSunny.13 mph53%30.15 "Hg10 mi
3:20 PM68 °FSunny.12 mph56%30.15 "Hg10 mi
2:50 PM68 °FSunny.13 mph56%30.15 "Hg10 mi
2:20 PM68 °FSunny.10 mph56%30.15 "Hg10 mi
1:50 PM68 °FSunny.14 mph53%30.15 "Hg10 mi
1:20 PM68 °FPassing clouds.14 mph53%30.18 "HgN/A
12:50 PM66 °FPassing clouds.14 mph60%30.18 "HgN/A
12:20 PM68 °FPassing clouds.12 mph60%30.18 "HgN/A
11:50 AM66 °FSunny.12 mph73%30.18 "Hg10 mi
11:20 AM66 °FSunny.9 mph73%30.18 "Hg10 mi
10:50 AM64 °FPassing clouds.7 mph78%30.18 "HgN/A
10:20 AM63 °FSunny.7 mph83%30.18 "Hg10 mi
9:50 AM61 °FPassing clouds.7 mph88%30.18 "HgN/A
9:20 AM61 °FScattered clouds.7 mph88%30.18 "HgN/A
8:50 AM59 °FPartly sunny.9 mph94%30.18 "HgN/A
8:20 AM59 °FPartly sunny.12 mph94%30.18 "Hg6 mi
7:50 AM57 °FPartly sunny.10 mph100%30.18 "Hg5 mi
7:20 AM57 °FPassing clouds.10 mph94%30.18 "Hg5 mi
6:50 AM57 °FPassing clouds.12 mph94%30.18 "Hg5 mi
6:20 AM57 °FPassing clouds.10 mph94%30.18 "HgN/A
5:50 AM57 °FPassing clouds.9 mph94%30.18 "HgN/A
5:20 AM57 °FPassing clouds.10 mph88%30.18 "HgN/A
4:50 AM57 °FPassing clouds.10 mph94%30.18 "HgN/A
4:20 AM57 °FPassing clouds.12 mph88%30.18 "HgN/A
3:50 AM57 °FPassing clouds.10 mph88%30.18 "HgN/A
3:20 AM57 °FPassing clouds.12 mph88%30.18 "HgN/A
2:50 AM57 °FPassing clouds.9 mph88%30.21 "HgN/A
2:20 AM57 °FPassing clouds.10 mph88%30.21 "HgN/A
1:50 AM57 °FPassing clouds.9 mph88%30.21 "HgN/A
1:20 AM57 °FPassing clouds.9 mph88%30.21 "HgN/A
12:20 AM57 °FPassing clouds.9 mph88%30.21 "HgN/A
11:50 PM
Sep 16
57 °FPassing clouds.9 mph94%30.24 "HgN/A
11:20 PM57 °FPassing clouds.10 mph88%30.24 "HgN/A
10:50 PM57 °FPassing clouds.10 mph88%30.24 "HgN/A
10:20 PM57 °FPassing clouds.13 mph88%30.24 "HgN/A
9:50 PM59 °FClear.13 mph82%30.24 "Hg10 mi
9:20 PM59 °FClear.12 mph88%30.24 "Hg10 mi
8:50 PM59 °FClear.14 mph82%30.24 "Hg10 mi
8:20 PM61 °FSunny.14 mph83%30.21 "Hg10 mi
Weather by CustomWeather, © 2014

See weather overviewHow to use our weather pages